Location: *
(37.9721°N, 23.7265°E)
Time: 13:25:17
(UTC+00:00)

Daily predictions for brighter satellites

Satellite Brightness Start Highest point End
(mag) Time Altitude Azimuth Time Altitude Azimuth Time Altitude Azimuth
Cosmos 1953 Rocket 4.0 15:59:04 10° NNW 16:03:24 67° W 16:07:40 10° S
NOSS 3-2 (A) 3.3 16:03:22 10° SSW 16:08:54 69° ESE 16:15:08 10° NE
Okean-O 2.6 16:06:50 10° SSE 16:11:14 77° ENE 16:15:41 10° N
BREEZE-M DEB (TANK) 4.4 16:08:48 10° NW 16:13:14 41° NE 16:25:22 10° ESE
Cosmos 1726 3.0 16:10:41 10° SSW 16:14:15 53° W 16:17:49 10° N
Delta 2 Rocket 3.3 16:12:21 10° WSW 16:16:02 57° S 16:19:12 12° E
Cosmos 1934 Rocket 4.1 16:11:02 10° N 16:17:25 88° W 16:23:47 10° S
Cosmos 1605 Rocket 4.0 16:12:12 10° N 16:18:16 60° E 16:24:16 10° SSE
COSMOS 2406 3.7 16:12:42 10° NNW 16:18:26 69° WSW 16:24:06 10° S
Unknown 3.5 16:19:37 10° NW 16:22:40 57° SW 16:25:45 10° SE
Cosmos 1703 3.5 16:21:39 10° N 16:25:34 74° W 16:29:26 10° S
Ariane Rocket 4.3 16:22:50 10° ESE 16:26:20 19° ENE 16:29:52 10° NNE
Cosmos 1727 Rocket 4.0 16:22:01 10° SSE 16:28:00 56° E 16:34:01 10° NNE
Cosmos 1812 Rocket 3.7 16:24:57 10° S 16:29:15 52° E 16:33:35 10° NNE
Cosmos 2278 Rocket 3.2 16:26:18 10° SW 16:31:47 50° WNW 16:37:18 10° NNE
Cosmos 1908 4.2 16:29:39 10° SSW 16:33:26 50° W 16:37:14 10° N
NOSS 3-2 (C) 3.3 16:30:24 10° SSW 16:35:59 69° ESE 16:42:14 10° NE
BREEZE M DEB (TANK) 2.9 16:34:48 10° NW 16:37:20 41° NE 16:41:30 16° ESE
Cosmos 2297 3.8 16:32:24 10° S 16:37:56 55° ESE 16:43:30 10° NNE
CSL-04 Rocket 3.8 16:32:42 10° SSE 16:38:04 53° ENE 16:43:23 10° N
ASTEX 1 3.8 16:33:53 10° N 16:38:50 70° W 16:43:47 10° SSW
YAOGAN 6 2.5 16:36:32 10° SSE 16:40:08 65° ENE 16:43:44 10° N
CZ-3 Stage 3 2.7 16:34:13 10° WSW 16:40:18 30° SSW 16:42:15 15° SE
YAOGAN 1 2.7 16:36:22 10° SSE 16:40:32 50° ENE 16:44:44 10° N
Lacrosse 5 1.9 16:37:33 10° NW 16:42:32 57° NE 16:46:29 16° ESE
SKYMED 2 3.9 16:41:29 10° N 16:45:48 69° WNW 16:50:06 10° SSW
CZ-4 R/B 1.4 16:43:36 10° SSE 16:47:47 83° ENE 16:52:02 10° N
FengYun 1-2 T 4.2 16:43:56 10° SSE 16:49:34 89° E 16:55:12 10° NNW
Gbstr 26 Del rocket 4.1 16:45:02 10° NW 16:51:14 80° NE 16:57:45 14° SE
EO 1 Delta rocket 3.7 16:47:22 10° SSE 16:51:57 76° ENE 16:56:57 10° N
Unknown 3.1 16:49:00 10° NW 16:52:23 62° NE 16:53:36 35° ESE
Shenzhou-11 Module 2.6 16:50:39 10° WNW 16:53:20 45° SSW 16:54:21 29° SSE
Cosmos 1461 3.6 16:53:12 10° NW 16:57:16 56° WSW 17:01:28 10° SSE
ATLAS 3B R/B 2.6 16:51:50 10° SSW 16:58:33 68° ESE 17:05:09 10° NE
NOAA 11 4.3 16:55:08 10° SE 17:00:21 50° ENE 17:05:35 10° N
Cosmos-2242 3.4 16:56:44 10° SSE 17:00:47 39° E 17:04:51 10° NNE
USA 116 3.7 16:57:51 10° N 17:01:14 68° WNW 17:04:58 10° SSW
Cosmos 44 3.6 16:56:58 10° SW 17:01:56 66° WNW 17:06:40 10° NNE
Cosmos 1763 Rocket 3.7 16:57:21 10° S 17:02:26 48° ESE 17:07:19 11° NNE
CENTAUR R/B 2.3 16:58:33 10° SSW 17:04:16 79° ESE 17:10:57 10° NE
Cosmos 1833 Rocket 3.2 16:58:52 10° NNW 17:04:24 61° WSW 17:09:54 10° S
Cosmos 2100 Rocket 4.0 16:59:05 10° N 17:05:09 57° E 17:11:09 10° SSE
Cosmos 2208 Rocket 4.3 17:02:37 10° S 17:07:26 40° ESE 17:09:01 32° ENE
FALCON 9 DEB 3.0 17:05:15 10° NW 17:08:44 75° NE 17:09:08 64° E
Cosmos 2084 Rocket 3.3 17:11:04 10° NNW 17:15:30 83° ENE 17:17:01 40° SE
Cosmos 1300 3.9 17:15:56 10° SSW 17:19:34 43° W 17:23:14 10° N
Cosmos 2016 Rocket 4.2 17:13:43 10° N 17:19:48 47° E 17:22:56 27° SE
Falcon 9 debris 3.2 17:17:37 10° NW 17:21:03 70° SW 17:21:07 70° SSW
SJ 16-02 2.7 17:17:13 10° N 17:19:25 24° NNE 17:19:25 24° NNE
Cosmos 2369 Rocket 3.3 17:19:09 10° SSE 17:22:12 27° SE 17:22:12 27° SE
Unknown 3.5 17:24:37 10° NW 17:27:36 62° WNW 17:27:36 62° WNW
Cosmos 44 Rocket 3.7 17:24:11 10° S 17:28:13 45° SE 17:28:13 45° SE
CZ-2D R/B 3.6 17:31:43 28° S 17:33:36 63° W 17:37:27 10° NNW
MOS 1 4.3 17:34:56 55° E 17:35:09 55° ENE 17:40:40 10° N
H-2A R/B 4.0 17:40:42 17° NNE 17:40:42 17° NNE 17:42:09 10° N
Cosmos 1898 Rocket 3.4 17:33:11 10° NNW 17:38:30 82° ENE 17:39:33 59° SSE
Cosmos 2082 Rocket 3.2 17:34:14 10° NW 17:39:37 45° WSW 17:44:56 10° S
Cosmos 1943 Rocket 2.5 17:34:42 10° S 17:38:58 48° SSE 17:38:58 48° SSE
Cosmos 2058 3.8 17:39:01 10° NNW 17:43:05 49° W 17:46:52 11° SSW
Cosmos 1939 Rocket 3.7 17:46:40 37° SW 17:47:47 48° W 17:51:44 10° NNW
Cosmos 1459 Rocket 4.2 17:42:48 10° NNW 17:49:02 69° W 17:55:19 10° S
IRS-1A Rocket 4.2 17:47:28 38° S 17:49:40 83° WSW 17:55:13 10° NNW
Cosmos 2061 Rocket 4.1 17:56:29 10° N 18:02:41 74° W 18:06:01 29° S
Ariane Rocket 3.8 18:02:13 25° SSW 18:04:53 48° W 18:09:50 10° NNW
ADEOS Rocket 3.6 18:07:23 10° NNE 18:19:25 24° S 18:21:44 10° SSW
Lacrosse 5 3.9 18:21:24 10° WNW 18:25:06 21° WSW 18:25:46 20° SW
ATLAS 3B R/B 4.4 18:44:17 10° W 18:49:43 25° NW 18:52:29 20° N
Cosmos 2344 4.4 18:44:04 10° SW 18:48:37 40° SW 18:48:37 40° SW
